Вернуться в каталог

SL-8 DEB

АктивенLEO
NORAD 17842·DEBRIS·🇷🇺 Russia

Запущен Apr 17, 1986 с Plesetsk Cosmodrome

Loading…

Ближайшие Пролёты (ближайшие 24 часа)

TLE

СвежийSource: Space-Track

Эпоха: Sep 14, 2026, 14:18 UTC

1 17842U 86030C   26257.59630292  .00000891  00000-0  23605-3 0  9994
2 17842  74.0197  61.9165 0015504 174.0283 304.0020 14.50188264 79228

Отслеживайте SL-8 DEB в реальном времени с AllMySat

Download on the App Store